Lid_Strength_Index
4 3 3 3 3 3 4 3 3 3 4 4 4 3 3 3 3 3 4 4 4 4 3 4 4 3 3 4 2 1 1 1 3 1 0 -1 -1 -1 -1 -1 -1 -0 0
3 3 3 2 3 3 3 3 2 3 4 4 4 4 4 4 3 3 4 5 5 5 4 4 4 4 2 1 2 1 1 0 1 2 1 1 0 -1 -1 -1 -0 -0 -0
3 3 3 2 2 2 2 2 2 3 4 4 5 5 5 4 3 3 3 4 4 4 4 4 4 3 3 2 1 0 1 1 0 1 2 0 0 -0 0 -0 -0 -0 0
3 3 3 2 2 2 2 2 3 3 4 4 5 5 5 4 3 3 3 3 3 3 3 3 3 2 1 0 0 0 0 1 1 1 2 2 1 0 1 2 2 1 1
4 3 3 3 3 3 3 3 3 3 3 4 6 5 5 5 6 4 3 3 3 3 3 3 2 1 1 1 1 -0 0 1 1 1 2 2 2 2 2 2 2 2 1
4 4 3 3 3 3 4 4 3 3 3 4 6 6 5 6 8 8 6 4 4 4 3 2 1 1 1 1 1 1 0 1 1 2 2 2 1 1 2 2 3 3 4
4 4 4 3 4 4 4 4 4 3 3 4 5 6 6 6 9 8 7 4 4 3 3 2 2 2 1 1 0 -0 -0 1 1 0 1 1 1 1 1 2 3 3 4
4 4 4 5 6 6 5 5 4 3 3 4 5 6 6 6 8 8 7 3 3 3 2 2 2 1 1 2 0 0 0 -1 -1 -0 -0 -0 -0 0 1 2 2 2 3
5 4 5 4 6 6 6 6 5 4 4 4 6 6 6 5 8 8 6 3 3 3 2 2 2 2 4 4 1 1 0 -0 -0 1 2 2 3 3 3 2 3 5 6
4 4 5 4 6 7 7 7 6 5 5 6 6 6 7 5 7 8 6 4 3 3 2 2 3 3 4 4 2 2 2 2 2 1 1 1 1 1 2 3 3 5 6
4 4 4 4 4 6 6 6 6 6 5 5 6 5 5 5 5 8 7 3 3 3 3 3 2 4 5 5 5 2 3 3 3 2 2 2 2 3 3 3 3 4 6
4 4 4 3 4 5 5 4 5 5 5 5 5 5 5 4 7 7 8 7 5 3 3 2 2 5 5 5 4 5 5 5 3 3 4 5 5 4 4 4 3 3 3
4 4 4 4 3 4 4 4 5 5 5 6 6 6 6 4 3 6 7 7 5 3 2 3 4 5 5 3 4 5 5 4 4 5 5 6 5 4 4 4 4 4 3
4 4 4 4 4 3 4 4 5 5 5 5 6 6 5 4 3 3 3 2 3 2 2 1 2 4 4 3 3 3 3 4 5 6 6 6 5 5 5 4 5 5 6
5 4 4 3 3 3 4 4 4 4 5 5 4 5 5 4 4 6 7 4 2 3 4 1 2 2 2 3 3 3 4 5 5 5 7 7 6 6 6 5 5 6 7
4 5 4 4 4 4 4 4 8 9 9 10 10 9 4 7 8 8 8 8 7 7 3 2 2 2 3 4 4 5 5 5 7 7 8 8 7 7 7 6 6 6 7
3 3 2 4 3 4 4 4 4 5 9 9 10 10 9 8 8 8 8 8 7 6 2 2 2 3 4 4 4 5 6 7 7 8 8 8 7 6 7 7 7 7 7
3 7 3 3 3 4 4 4 4 5 5 4 7 8 8 9 9 8 8 6 2 3 2 2 2 3 4 4 4 5 6 7 8 8 8 8 7 7 7 7 7 7 7
2 2 2 3 3 5 4 4 4 5 5 4 4 5 5 8 8 8 7 1 2 2 2 2 2 3 4 4 5 5 7 8 9 8 8 8 7 7 7 6 6 8 8
2 5 6 2 4 4 4 4 4 5 5 4 4 3 2 3 2 2 2 1 2 2 1 2 2 3 3 4 5 5 8 8 8 8 7 7 7 6 6 6 6 6 6
1 2 6 3 3 4 4 4 4 4 5 4 4 4 11 4 3 2 2 2 2 4 2 2 2 3 4 5 5 7 8 8 7 7 7 7 6 6 6 6 6 6 7
2 2 3 3 3 4 4 3 4 4 4 4 3 3 10 2 3 3 2 2 3 2 2 4 3 4 4 5 6 7 8 8 8 8 8 7 6 5 6 6 6 7 7
2 3 4 3 3 6 3 3 4 4 4 4 2 2 2 2 2 2 2 2 3 2 2 2 3 4 4 5 5 7 8 9 9 9 8 7 6 6 6 6 6 6 6
4 4 3 3 4 3 3 3 4 7 5 4 3 2 2 2 2 2 3 3 3 3 3 3 3 4 5 5 6 8 8 9 10 9 8 7 6 6 5 5 5 5 5
5 3 3 4 4 4 4 5 6 6 6 5 4 3 3 4 4 2 2 2 3 2 3 3 4 4 5 6 7 9 10 11 10 11 8 6 5 5 4 4 5 5 3
3 3 4 4 4 5 6 7 7 7 7 5 5 5 4 5 5 3 3 2 3 3 2 3 4 5 5 6 9 11 11 11 11 11 9 5 5 5 4 2 2 3 3